EW6143 Weather Reports


Display with metric or nautical units.
time (UTC)temp
F
wind
direction
speed
MPH
gust
MPH
rain 1hr
in
rain 24hr
in
rain mn
in
humidity
%
barometer
mb
20260510084528 74 124 7.0 13.0 0.00 0.00 0.00 84 1012.7
20260510083028 74 225 4.0 8.0 0.00 0.00 0.00 84 1012.2
20260510081526 74 167 3.0 9.0 0.00 0.00 0.00 83 1012.3
20260510080027 74 188 2.0 5.0 0.00 0.00 0.00 83 1011.7
20260510074535 74 184 2.0 5.0 0.00 0.00 0.00 82 1011.0
20260510073030 75 223 3.0 9.0 0.00 0.00 0.00 82 1010.4
20260510071529 75 261 2.0 10.0 0.00 0.00 0.00 81 1010.2
20260510070034 76 176 3.0 12.0 0.00 0.00 0.00 80 1011.6
20260510064530 76 155 4.0 9.0 0.00 0.00 0.00 79 1011.9
20260510063034 76 126 2.0 7.0 0.00 0.00 0.00 78 1012.0
20260510061531 76 117 1.0 5.0 0.00 0.00 0.00 78 1012.0
20260510060032 76 271 4.0 11.0 0.00 0.00 0.00 78 1010.4
20260510054600 76 263 5.0 11.0 0.00 0.00 0.00 78 1009.9
20260510053030 76 263 6.0 12.0 0.00 0.00 0.00 78 1009.5
20260510051531 76 290 5.0 13.0 0.00 0.00 0.00 78 1009.5
20260510050027 76 273 7.0 15.0 0.00 0.00 0.00 78 1009.4
20260510044528 76 277 5.0 13.0 0.00 0.00 0.00 77 1009.1
20260510043030 76 290 4.0 11.0 0.00 0.00 0.00 75 1009.0
20260510041537 76 271 4.0 9.0 0.00 0.00 0.00 72 1009.3
20260510040028 76 264 2.0 5.0 0.00 0.00 0.00 71 1009.5
20260510034529 76 295 0.0 4.0 0.00 0.00 0.00 70 1009.2
20260510033027 76 261 1.0 4.0 0.00 0.00 0.00 70 1009.3
20260510031533 77 263 2.0 4.0 0.00 0.00 0.00 69 1009.4
20260510030027 77 265 2.0 4.0 0.00 0.00 0.00 68 1009.3
20260510024530 78 230 2.0 5.0 0.00 0.00 0.00 66 1009.2
20260510023030 78 239 2.0 4.0 0.00 0.00 0.00 65 1009.2
20260510021535 79 239 2.0 5.0 0.00 0.00 0.00 63 1009.0
20260510020031 80 236 1.0 4.0 0.00 0.00 0.00 61 1008.9
20260510014532 81 230 1.0 5.0 0.00 0.00 0.00 59 1008.8
20260510013029 82 243 2.0 6.0 0.00 0.00 0.00 58 1008.6
20260510011528 83 235 2.0 5.0 0.00 0.00 0.00 56 1008.3
20260510010030 84 226 1.0 5.0 0.00 0.00 0.00 56 1008.1
20260510004529 84 219 2.0 7.0 0.00 0.00 0.00 54 1008.0
20260510003026 84 196 3.0 7.0 0.00 0.00 0.00 52 1008.0
20260510001538 85 229 4.0 8.0 0.00 0.00 0.00 50 1008.2
20260510000030 86 213 3.0 7.0 0.00 0.00 0.00 47 1008.1
20260509234530 86 194 3.0 9.0 0.00 0.00 0.00 47 1008.0
20260509233030 87 165 4.0 8.0 0.00 0.00 0.00 46 1008.0
20260509231528 88 189 3.0 8.0 0.00 0.00 0.00 45 1008.2
20260509230030 87 193 3.0 11.0 0.00 0.00 0.00 42 1008.1
20260509224529 88 199 4.0 9.0 0.00 0.00 0.00 45 1008.0
20260509223028 88 182 2.0 10.0 0.00 0.00 0.00 46 1007.9
20260509221530 88 205 4.0 10.0 0.00 0.00 0.00 46 1007.9
20260509220029 87 125 3.0 10.0 0.00 0.00 0.00 48 1008.0
20260509214536 87 204 5.0 12.0 0.00 0.00 0.00 49 1008.1
20260509213028 88 189 4.0 11.0 0.00 0.00 0.00 51 1008.3
20260509211531 87 198 5.0 10.0 0.00 0.00 0.00 51 1008.5
20260509210033 88 192 5.0 10.0 0.00 0.00 0.00 53 1008.8
20260509204537 87 190 6.0 11.0 0.00 0.00 0.00 52 1009.1
20260509203027 88 233 2.0 9.0 0.00 0.00 0.00 55 1009.3
20260509201528 87 250 4.0 10.0 0.00 0.00 0.00 53 1009.4
20260509200038 87 204 6.0 12.0 0.00 0.00 0.00 55 1009.5
20260509194537 86 163 2.0 11.0 0.00 0.00 0.00 56 1009.5
20260509193036 88 184 2.0 12.0 0.00 0.00 0.00 57 1009.7
20260509191530 86 161 3.0 11.0 0.00 0.00 0.00 60 1009.9
20260509190029 85 136 6.0 12.0 0.00 0.00 0.00 60 1010.0
20260509184533 85 215 4.0 11.0 0.00 0.00 0.00 61 1010.0
20260509183032 85 168 5.0 11.0 0.00 0.00 0.00 62 1010.1
20260509181527 84 237 3.0 12.0 0.00 0.00 0.00 62 1010.1
20260509180027 84 248 4.0 10.0 0.00 0.00 0.00 62 1010.3
20260509174527 84 194 3.0 8.0 0.00 0.00 0.00 63 1010.5
20260509173028 83 221 4.0 11.0 0.00 0.00 0.00 63 1010.7
20260509171528 83 79 4.0 12.0 0.00 0.00 0.00 64 1010.9
20260509170030 83 177 5.0 12.0 0.00 0.00 0.00 64 1010.8
20260509164530 81 148 2.0 8.0 0.00 0.00 0.00 65 1010.9
20260509163031 82 158 2.0 7.0 0.00 0.00 0.00 66 1010.9
20260509161530 80 162 3.0 9.0 0.00 0.00 0.00 68 1010.8
20260509160028 80 94 4.0 9.0 0.00 0.00 0.00 68 1010.8
20260509154533 79 78 1.0 10.0 0.00 0.00 0.00 70 1010.7
20260509153032 77 83 5.0 13.0 0.00 0.00 0.00 72 1010.7
20260509151533 77 72 2.0 10.0 0.00 0.00 0.00 74 1010.6
20260509150026 76 86 3.0 9.0 0.00 0.00 0.00 76 1010.8
20260509144529 75 104 2.0 8.0 0.00 0.00 0.00 76 1010.9
20260509143038 74 94 3.0 7.0 0.00 0.00 0.00 78 1010.8
20260509141529 73 122 2.0 8.0 0.00 0.00 0.00 81 1010.6
20260509140052 72 74 1.0 8.0 0.00 0.00 0.00 84 1010.5
20260509134527 71 109 0.0 3.0 0.00 0.00 0.00 86 1010.5
20260509133029 71 82 1.0 4.0 0.00 0.00 0.00 87 1010.2
20260509131535 70 0 0.0 3.0 0.00 0.00 0.00 87 1010.2
20260509130029 70 0 0.0 3.0 0.00 0.00 0.00 87 1010.0
20260509124535 70 0 0.0 3.0 0.00 0.00 0.00 87 1010.1
20260509123028 70 0 0.0 0.0 0.00 0.00 0.00 87 1010.1
20260509121544 69 0 0.0 0.0 0.00 0.00 0.00 86 1010.0
20260509120035 70 0 0.0 2.0 0.00 0.00 0.00 86 1010.1
20260509114529 70 236 1.0 3.0 0.00 0.00 0.00 86 1009.8
20260509113027 70 257 1.0 3.0 0.00 0.00 0.00 86 1009.4
20260509104532 70 283 2.0 6.0 0.00 0.00 0.00 86 1008.8
20260509103035 70 238 0.0 3.0 0.00 0.00 0.00 86 1009.0
20260509101532 70 0 0.0 0.0 0.00 0.00 0.00 86 1008.9
20260509093031 70 0 0.0 7.0 0.00 0.00 0.00 85 1008.2
20260509091532 70 288 5.0 11.0 0.00 0.00 0.00 85 1007.3